Location: Kitt Peak
(31.9514°N, 111.6156°W)
Time: 23:18:59
(UTC-07:00)

X-37B - Visible Passes

Search period start: 29 September 2023 00:00
Search period end: 09 October 2023 00:00
Orbit: 277 x 277 km, 45.0° (Epoch: 01 November)

Date Brightness Start Highest point End Pass type
(mag) Time Alt. Az. Time Alt. Az. Time Alt. Az.
29 Sep 0.9 04:56:28 42° NE 04:56:28 42° NE 04:58:45 10° ESE visible
30 Sep 1.1 04:57:54 36° SE 04:57:54 36° SE 04:59:31 10° SE visible
01 Oct 2.7 04:59:29 13° SSE 04:59:29 13° SSE 04:59:51 10° SSE visible
04 Oct 1.8 19:30:15 10° SW 19:31:27 24° SSW 19:31:27 24° SSW visible
05 Oct 1.2 19:30:55 10° WSW 19:32:45 41° W 19:32:45 41° W visible
06 Oct 2.0 19:31:56 10° W 19:33:53 25° NW 19:33:53 25° NW visible
07 Oct 2.7 19:33:20 10° WNW 19:34:50 15° NNW 19:34:53 15° NNW visible
